COSMOS 970 DEB, 10567

Orbit data source: Space-Track

COSMOS 970 DEB, 10567 is space debris in LEO originally from a launch on Wed, 21 Dec 1977 UTC launched from the Tyuratam Missile And Space Complex (TTMTR). Debris objects in space refer to the collection of defunct objects orbiting the Earth. Examples of debris include non-operational satellites, rocket bodies, and fragments generated from explosions, collisions, or faulty payload assembly.

Loading next visibility...
Identifier
10567, 1977-121J
Orbit
LEO
Country
Flag of CISCIS
Related business
Manufacturer
Unknown
Mission
Spacecraft
Bus & Motor
Unknown
Mass
Unknown
Launch date (UTC)
1977-12-21 (48 years ago)
Launch vehicle
Unknown
Launch site
Tyuratam Missile And Space Complex (TTMTR)
Object type
Payload
Rocket body
Debris
Shape & HBR
Unknown shape, 0.1 m
Radar Cross Section
Medium (>0.1 m² and <1 m²)

Expand to show TLE details & history
Last TLE update: 20 hours ago

TLE from 20 hours ago
0 COSMOS 970 DEB
1 10567U 77121J   26171.20464192  .00000005  00000-0  11420-3 0  9998
2 10567  65.7943  97.1417 0094074 121.9009 354.6609 13.55478374398246
Epoch: 2026-06-20T04:54Z
TLE epoch observation values (Epoch: 2026-06-20T04:54:41.061Z)
Latitude
54.85755°
Longitude
-104.39419°
Altitude
990.725 km
Speed
7.396 km/s
True Right ascension
15h 50m 47s
True Declination
54° 42' 02"
Sunlit
Object was in daylight at epoch
Visualization orbit readout
Latitude
Unknown
Longitude
Unknown
Altitude
Unknown
Speed
Unknown
Apparent Right ascension
Unknown
Apparent Declination
Unknown
Sunlit
N/A
Visualization observer readout
Local Sidereal Time
11:42:43
Azimuth
Unknown
Elevation
Unknown
Doppler factor
Unknown
Orbital elements
Apogee altitude
1,120.592 km
Perigee altitude
980.82 km
Semi-major axis
7,428.843 km
Eccentricity
0.00941
Inclination
65.7943°
RAAN
97.1417°
Arg. of periapsis
121.9009°
True anomaly
354.5594°
Mean anomaly
354.6609°
Eccentric anomaly
354.61027°
Mean motion
3.3897 °/min
Orbital period
106.2 mins
BSTAR
0.0001142
Loading maneuver chart data...
Computing Atmospheric mass density...
Loading historical data...
Loading historical data...
Loading historical data...
Loading historical data...
Loading historical data...
Loading historical data...
Loading historical data...

Documentation

Showing up to 5 results
|